| time (UTC) | temp F | wind direction | speed MPH | gust MPH | rain 1hr in | rain 24hr in | rain mn in | humidity % | barometer mb |
| 20260505193552 | 59 | 268 | 0.0 | 7.0 | 0.00 | 0.85 | 0.02 | 78 | 1017.4 |
| 20260505193051 | 59 | 248 | 3.0 | 8.0 | 0.00 | 0.85 | 0.02 | 79 | 1017.5 |
| 20260505192550 | 59 | 236 | 3.0 | 8.0 | 0.00 | 0.85 | 0.02 | 78 | 1017.4 |
| 20260505192050 | 59 | 217 | 3.0 | 10.0 | 0.00 | 0.85 | 0.02 | 81 | 1017.4 |
| 20260505191552 | 59 | 246 | 5.0 | 10.0 | 0.00 | 0.85 | 0.02 | 80 | 1017.4 |
| 20260505191051 | 58 | 223 | 5.0 | 9.0 | 0.00 | 0.85 | 0.02 | 81 | 1017.4 |
| 20260505190552 | 58 | 236 | 5.0 | 7.0 | 0.00 | 0.85 | 0.02 | 80 | 1017.4 |
| 20260505190052 | 58 | 254 | 3.0 | 9.0 | 0.00 | 0.85 | 0.02 | 81 | 1017.4 |
| 20260505185550 | 58 | 281 | 6.0 | 9.0 | 0.00 | 0.85 | 0.02 | 81 | 1017.4 |
| 20260505185049 | 58 | 239 | 4.0 | 9.0 | 0.00 | 0.85 | 0.02 | 81 | 1017.3 |
| 20260505184549 | 58 | 306 | 3.0 | 6.0 | 0.00 | 0.85 | 0.02 | 81 | 1017.3 |
| 20260505184049 | 58 | 261 | 2.0 | 7.0 | 0.00 | 0.85 | 0.02 | 82 | 1017.3 |
| 20260505183548 | 58 | 271 | 3.0 | 8.0 | 0.00 | 0.85 | 0.02 | 81 | 1017.3 |
| 20260505183048 | 58 | 266 | 4.0 | 8.0 | 0.00 | 0.85 | 0.02 | 81 | 1017.4 |
| 20260505182548 | 58 | 246 | 2.0 | 8.0 | 0.00 | 0.85 | 0.02 | 81 | 1017.3 |
| 20260505182048 | 58 | 224 | 4.0 | 8.0 | 0.00 | 0.85 | 0.02 | 81 | 1017.3 |
| 20260505181611 | 58 | 174 | 3.0 | 9.0 | 0.00 | 0.85 | 0.02 | 81 | 1017.2 |
| 20260505181049 | 59 | 182 | 5.0 | 9.0 | 0.00 | 0.85 | 0.02 | 82 | 1017.2 |
| 20260505180545 | 58 | 225 | 6.0 | 9.0 | 0.00 | 0.85 | 0.02 | 82 | 1017.2 |
| 20260505180100 | 57 | 204 | 0.0 | 8.0 | 0.00 | 0.85 | 0.02 | 83 | 1017.2 |
| 20260505175544 | 57 | 209 | 5.0 | 9.0 | 0.00 | 0.85 | 0.02 | 82 | 1017.2 |
| 20260505175043 | 57 | 215 | 5.0 | 9.0 | 0.00 | 0.85 | 0.02 | 84 | 1017.2 |
| 20260505174544 | 56 | 204 | 2.0 | 8.0 | 0.00 | 0.85 | 0.02 | 85 | 1017.2 |
| 20260505174040 | 56 | 184 | 4.0 | 8.0 | 0.00 | 0.85 | 0.02 | 85 | 1017.2 |
| 20260505173540 | 56 | 209 | 2.0 | 8.0 | 0.00 | 0.85 | 0.02 | 85 | 1017.1 |
| 20260505173039 | 56 | 238 | 4.0 | 9.0 | 0.00 | 0.85 | 0.02 | 86 | 1017.2 |
| 20260505172538 | 56 | 231 | 6.0 | 9.0 | 0.00 | 0.85 | 0.02 | 87 | 1017.2 |
| 20260505172037 | 55 | 194 | 4.0 | 8.0 | 0.00 | 0.85 | 0.02 | 87 | 1017.2 |
| 20260505171541 | 55 | 252 | 2.0 | 8.0 | 0.00 | 0.85 | 0.02 | 88 | 1017.1 |
| 20260505171036 | 55 | 215 | 6.0 | 9.0 | 0.00 | 0.85 | 0.02 | 88 | 1017.1 |
| 20260505170534 | 55 | 220 | 6.0 | 9.0 | 0.00 | 0.85 | 0.02 | 89 | 1017.1 |
| 20260505170034 | 54 | 194 | 5.0 | 9.0 | 0.00 | 0.85 | 0.02 | 88 | 1017.2 |
| 20260505165537 | 54 | 194 | 4.0 | 7.0 | 0.00 | 0.85 | 0.02 | 90 | 1017.2 |
| 20260505165134 | 54 | 181 | 5.0 | 7.0 | 0.00 | 0.85 | 0.02 | 89 | 1017.3 |
| 20260505164533 | 54 | 198 | 1.0 | 7.0 | 0.00 | 0.85 | 0.02 | 90 | 1017.1 |
| 20260505164032 | 54 | 191 | 4.0 | 7.0 | 0.00 | 0.85 | 0.02 | 90 | 1017.2 |
| 20260505163531 | 54 | 194 | 3.0 | 6.0 | 0.00 | 0.85 | 0.02 | 91 | 1017.2 |
| 20260505163030 | 54 | 188 | 3.0 | 7.0 | 0.00 | 0.85 | 0.02 | 91 | 1017.1 |
| 20260505162529 | 53 | 195 | 4.0 | 7.0 | 0.00 | 0.85 | 0.02 | 91 | 1017.2 |
| 20260505162028 | 53 | 184 | 4.0 | 7.0 | 0.00 | 0.85 | 0.02 | 92 | 1017.1 |
| 20260505161527 | 53 | 193 | 3.0 | 7.0 | 0.00 | 0.85 | 0.02 | 92 | 1017.1 |
| 20260505161026 | 53 | 190 | 3.0 | 7.0 | 0.00 | 0.85 | 0.02 | 92 | 1017.0 |
| 20260505160531 | 53 | 161 | 4.0 | 7.0 | 0.00 | 0.85 | 0.02 | 93 | 1017.1 |
| 20260505153034 | 52 | 155 | 4.0 | 8.0 | 0.00 | 0.85 | 0.02 | 94 | 1017.1 |
| 20260505152521 | 52 | 155 | 3.0 | 6.0 | 0.00 | 0.85 | 0.02 | 94 | 1017.1 |
| 20260505152018 | 52 | 157 | 1.0 | 6.0 | 0.00 | 0.85 | 0.02 | 94 | 1017.1 |
| 20260505151521 | 51 | 160 | 3.0 | 6.0 | 0.00 | 0.85 | 0.02 | 94 | 1017.1 |
| 20260505151018 | 51 | 188 | 4.0 | 7.0 | 0.00 | 0.85 | 0.02 | 94 | 1017.0 |
| 20260505150519 | 51 | 157 | 4.0 | 7.0 | 0.00 | 0.85 | 0.02 | 94 | 1017.0 |
| 20260505140504 | 51 | 214 | 4.0 | 6.0 | 0.00 | 0.85 | 0.02 | 94 | 1016.4 |
| 20260505140110 | 51 | 223 | 3.0 | 6.0 | 0.00 | 0.85 | 0.02 | 94 | 1016.4 |
| 20260505124548 | 51 | 164 | 1.0 | 2.0 | 0.00 | 0.85 | 0.02 | 93 | 1016.1 |
| 20260505124048 | 51 | 164 | 0.0 | 2.0 | 0.00 | 0.85 | 0.02 | 93 | 1016.0 |
| 20260505123546 | 51 | 164 | 1.0 | 2.0 | 0.00 | 0.85 | 0.02 | 93 | 1016.0 |
| 20260505123052 | 51 | 164 | 0.0 | 2.0 | 0.00 | 0.85 | 0.02 | 93 | 1015.9 |
| 20260505122544 | 51 | 163 | 0.0 | 1.0 | 0.00 | 0.85 | 0.02 | 93 | 1016.0 |
| 20260505122042 | 52 | 163 | 0.0 | 1.0 | 0.00 | 0.85 | 0.02 | 93 | 1015.9 |
| 20260505121541 | 52 | 163 | 0.0 | 1.0 | 0.01 | 0.85 | 0.02 | 93 | 1015.8 |
| 20260505121041 | 51 | 163 | 0.0 | 2.0 | 0.01 | 0.85 | 0.02 | 93 | 1015.8 |
| 20260505120539 | 51 | 163 | 0.0 | 2.0 | 0.01 | 0.85 | 0.02 | 93 | 1015.8 |
| 20260505115538 | 51 | 163 | 0.0 | 4.0 | 0.01 | 0.85 | 0.02 | 93 | 1015.8 |
| 20260505115037 | 51 | 163 | 0.0 | 4.0 | 0.01 | 0.85 | 0.02 | 92 | 1015.8 |
| 20260505114536 | 51 | 164 | 2.0 | 4.0 | 0.01 | 0.85 | 0.02 | 92 | 1015.8 |
| 20260505114037 | 51 | 166 | 1.0 | 3.0 | 0.01 | 0.85 | 0.02 | 92 | 1015.9 |
| 20260505113533 | 51 | 166 | 0.0 | 4.0 | 0.01 | 0.85 | 0.02 | 92 | 1015.9 |
| 20260505113032 | 52 | 166 | 2.0 | 4.0 | 0.01 | 0.85 | 0.02 | 92 | 1016.0 |
| 20260505112530 | 52 | 167 | 1.0 | 4.0 | 0.01 | 0.85 | 0.02 | 92 | 1016.0 |
| 20260505112029 | 52 | 169 | 0.0 | 2.0 | 0.01 | 0.85 | 0.02 | 92 | 1016.0 |
| 20260505111533 | 52 | 169 | 0.0 | 2.0 | 0.00 | 0.84 | 0.01 | 92 | 1016.1 |
| 20260505111025 | 52 | 169 | 1.0 | 2.0 | 0.00 | 0.84 | 0.01 | 92 | 1016.1 |
| 20260505110524 | 51 | 169 | 0.0 | 2.0 | 0.00 | 0.84 | 0.01 | 92 | 1016.0 |
| 20260505102020 | 51 | 149 | 1.0 | 2.0 | 0.00 | 0.84 | 0.01 | 93 | 1015.9 |
| 20260505101517 | 51 | 150 | 0.0 | 2.0 | 0.00 | 0.84 | 0.01 | 93 | 1016.0 |
| 20260505101017 | 51 | 150 | 0.0 | 1.0 | 0.00 | 0.84 | 0.01 | 93 | 1016.0 |
| 20260505100517 | 51 | 150 | 0.0 | 1.0 | 0.00 | 0.84 | 0.01 | 93 | 1015.9 |
| 20260505100020 | 51 | 150 | 0.0 | 2.0 | 0.00 | 0.84 | 0.01 | 93 | 1016.0 |
| 20260505095520 | 51 | 150 | 0.0 | 4.0 | 0.00 | 0.84 | 0.01 | 93 | 1016.1 |
| 20260505095017 | 51 | 150 | 1.0 | 3.0 | 0.00 | 0.84 | 0.01 | 93 | 1016.1 |
| 20260505094518 | 51 | 150 | 1.0 | 5.0 | 0.00 | 0.84 | 0.01 | 93 | 1016.1 |
| 20260505094016 | 51 | 140 | 1.0 | 6.0 | 0.00 | 0.84 | 0.01 | 93 | 1016.1 |
| 20260505093516 | 51 | 146 | 1.0 | 6.0 | 0.00 | 0.84 | 0.01 | 93 | 1016.1 |
| 20260505093015 | 51 | 152 | 2.0 | 6.0 | 0.00 | 0.84 | 0.01 | 93 | 1016.1 |
| 20260505092515 | 51 | 155 | 0.0 | 5.0 | 0.00 | 0.84 | 0.01 | 93 | 1016.1 |
| 20260505092015 | 51 | 155 | 1.0 | 5.0 | 0.00 | 0.84 | 0.01 | 93 | 1016.2 |
| 20260505091512 | 51 | 153 | 1.0 | 5.0 | 0.00 | 0.84 | 0.01 | 93 | 1016.1 |
| 20260505091012 | 51 | 153 | 0.0 | 4.0 | 0.00 | 0.84 | 0.01 | 93 | 1016.2 |
| 20260505090512 | 51 | 153 | 1.0 | 4.0 | 0.00 | 0.84 | 0.01 | 93 | 1016.2 |
| 20260505090011 | 51 | 155 | 1.0 | 2.0 | 0.00 | 0.84 | 0.01 | 93 | 1016.4 |
| 20260505085511 | 51 | 155 | 1.0 | 2.0 | 0.00 | 0.84 | 0.01 | 93 | 1016.4 |
| 20260505085011 | 51 | 156 | 0.0 | 2.0 | 0.00 | 0.84 | 0.01 | 93 | 1016.5 |
| 20260505084510 | 51 | 156 | 0.0 | 2.0 | 0.00 | 0.84 | 0.01 | 93 | 1016.5 |
| 20260505084010 | 51 | 156 | 1.0 | 6.0 | 0.00 | 0.84 | 0.01 | 93 | 1016.5 |
| 20260505083514 | 51 | 117 | 0.0 | 4.0 | 0.00 | 0.84 | 0.01 | 93 | 1016.5 |
| 20260505083010 | 51 | 115 | 1.0 | 4.0 | 0.00 | 0.84 | 0.01 | 94 | 1016.5 |
| 20260505082512 | 51 | 105 | 1.0 | 3.0 | 0.00 | 0.84 | 0.01 | 94 | 1016.6 |
| 20260505082011 | 51 | 105 | 1.0 | 4.0 | 0.00 | 0.84 | 0.01 | 94 | 1016.7 |
| 20260505081514 | 51 | 115 | 1.0 | 3.0 | 0.00 | 0.84 | 0.01 | 94 | 1016.6 |
| 20260505081010 | 51 | 116 | 1.0 | 2.0 | 0.01 | 0.84 | 0.01 | 94 | 1016.6 |
| 20260505080517 | 51 | 116 | 1.0 | 4.0 | 0.01 | 0.84 | 0.01 | 94 | 1016.5 |
| 20260505080009 | 51 | 119 | 1.0 | 3.0 | 0.01 | 0.84 | 0.01 | 94 | 1016.5 |
| 20260505075510 | 51 | 121 | 1.0 | 2.0 | 0.01 | 0.84 | 0.01 | 94 | 1016.4 |
| 20260505075009 | 51 | 121 | 0.0 | 1.0 | 0.01 | 0.84 | 0.01 | 94 | 1016.4 |
| 20260505074508 | 51 | 121 | 0.0 | 2.0 | 0.02 | 0.84 | 0.01 | 94 | 1016.4 |
| 20260505074009 | 51 | 121 | 0.0 | 2.0 | 0.03 | 0.84 | 0.01 | 93 | 1016.4 |
| 20260505073511 | 51 | 121 | 0.0 | 2.0 | 0.03 | 0.84 | 0.01 | 93 | 1016.6 |
| 20260505073007 | 51 | 121 | 0.0 | 2.0 | 0.04 | 0.84 | 0.01 | 93 | 1016.6 |
| 20260505072508 | 51 | 121 | 0.0 | 4.0 | 0.04 | 0.84 | 0.01 | 93 | 1016.7 |
| 20260505072007 | 51 | 121 | 0.0 | 4.0 | 0.04 | 0.84 | 0.01 | 93 | 1016.7 |
| 20260505071506 | 51 | 116 | 1.0 | 2.0 | 0.04 | 0.84 | 0.01 | 93 | 1016.5 |
| 20260505071006 | 51 | 115 | 0.0 | 1.0 | 0.03 | 0.83 | 0.00 | 93 | 1016.6 |
| 20260505070505 | 51 | 115 | 0.0 | 2.0 | 0.03 | 0.83 | 0.00 | 93 | 1016.6 |
| 20260505070003 | 51 | 115 | 0.0 | 2.0 | 0.03 | 0.83 | 0.83 | 93 | 1016.9 |
| 20260505065504 | 51 | 115 | 1.0 | 2.0 | 0.03 | 0.83 | 0.83 | 93 | 1016.9 |
| 20260505065003 | 51 | 115 | 0.0 | 2.0 | 0.03 | 0.83 | 0.83 | 93 | 1016.6 |
| 20260505064503 | 51 | 66 | 0.0 | 2.0 | 0.03 | 0.82 | 0.82 | 93 | 1016.5 |
| 20260505064005 | 51 | 61 | 0.0 | 2.0 | 0.02 | 0.81 | 0.81 | 93 | 1016.6 |
| 20260505063503 | 51 | 61 | 0.0 | 2.0 | 0.01 | 0.80 | 0.80 | 93 | 1016.5 |
| 20260505063002 | 51 | 61 | 0.0 | 2.0 | 0.02 | 0.80 | 0.80 | 93 | 1016.7 |
| 20260505062502 | 51 | 61 | 0.0 | 2.0 | 0.02 | 0.80 | 0.80 | 93 | 1016.8 |
| 20260505062003 | 51 | 61 | 0.0 | 2.0 | 0.03 | 0.80 | 0.80 | 93 | 1016.9 |
| 20260505061501 | 51 | 61 | 0.0 | 4.0 | 0.03 | 0.80 | 0.80 | 93 | 1016.9 |
| 20260505061001 | 51 | 60 | 1.0 | 4.0 | 0.04 | 0.80 | 0.80 | 93 | 1017.0 |
| 20260505060501 | 51 | 59 | 1.0 | 4.0 | 0.05 | 0.80 | 0.80 | 93 | 1016.8 |
| 20260505060002 | 51 | 59 | 0.0 | 2.0 | 0.06 | 0.80 | 0.80 | 93 | 1016.6 |
| 20260505055501 | 51 | 59 | 0.0 | 2.0 | 0.07 | 0.80 | 0.80 | 93 | 1016.8 |
| 20260505055001 | 51 | 59 | 0.0 | 2.0 | 0.08 | 0.80 | 0.80 | 93 | 1016.8 |
| 20260505054505 | 51 | 59 | 1.0 | 2.0 | 0.10 | 0.79 | 0.79 | 93 | 1016.8 |
| 20260505054001 | 51 | 56 | 1.0 | 4.0 | 0.11 | 0.79 | 0.79 | 93 | 1016.7 |
| 20260505053500 | 51 | 57 | 1.0 | 4.0 | 0.12 | 0.79 | 0.79 | 93 | 1016.8 |
| 20260505053001 | 51 | 59 | 1.0 | 5.0 | 0.12 | 0.78 | 0.78 | 93 | 1017.0 |
| 20260505052501 | 51 | 60 | 3.0 | 5.0 | 0.13 | 0.78 | 0.78 | 93 | 1017.0 |
| 20260505052001 | 51 | 51 | 3.0 | 5.0 | 0.14 | 0.77 | 0.77 | 93 | 1016.9 |
| 20260505051600 | 51 | 48 | 1.0 | 5.0 | 0.14 | 0.77 | 0.77 | 93 | 1016.9 |
| 20260505051100 | 51 | 49 | 2.0 | 5.0 | 0.15 | 0.76 | 0.76 | 93 | 1016.9 |
| 20260505050600 | 51 | 58 | 2.0 | 3.0 | 0.17 | 0.76 | 0.76 | 93 | 1016.9 |
| 20260505050109 | 51 | 59 | 1.0 | 3.0 | 0.19 | 0.75 | 0.75 | 93 | 1016.9 |
| 20260505041607 | 51 | 49 | 2.0 | 5.0 | 0.18 | 0.63 | 0.63 | 92 | 1017.0 |
| 20260505041057 | 51 | 105 | 2.0 | 5.0 | 0.17 | 0.61 | 0.61 | 92 | 1016.8 |
| 20260505040557 | 51 | 103 | 2.0 | 5.0 | 0.16 | 0.59 | 0.59 | 92 | 1016.9 |
| 20260505035557 | 51 | 103 | 2.0 | 6.0 | 0.13 | 0.53 | 0.53 | 92 | 1016.7 |
| 20260505035055 | 51 | 60 | 1.0 | 4.0 | 0.14 | 0.52 | 0.52 | 92 | 1016.6 |
| 20260505034610 | 51 | 59 | 1.0 | 6.0 | 0.14 | 0.50 | 0.50 | 92 | 1016.6 |
| 20260505034055 | 51 | 60 | 2.0 | 6.0 | 0.14 | 0.49 | 0.49 | 92 | 1016.8 |
| 20260505033555 | 51 | 65 | 4.0 | 8.0 | 0.14 | 0.48 | 0.48 | 92 | 1017.1 |
| 20260505033056 | 51 | 57 | 5.0 | 8.0 | 0.13 | 0.47 | 0.47 | 92 | 1017.1 |
| 20260505032555 | 51 | 63 | 2.0 | 7.0 | 0.14 | 0.46 | 0.46 | 92 | 1017.0 |
| 20260505032054 | 51 | 58 | 4.0 | 7.0 | 0.13 | 0.45 | 0.45 | 92 | 1016.9 |
| 20260505031554 | 51 | 42 | 4.0 | 6.0 | 0.14 | 0.45 | 0.45 | 92 | 1016.9 |
| 20260505031053 | 51 | 56 | 2.0 | 5.0 | 0.13 | 0.44 | 0.44 | 92 | 1016.8 |
| 20260505030556 | 51 | 55 | 1.0 | 6.0 | 0.12 | 0.43 | 0.43 | 92 | 1016.8 |
| 20260505025552 | 52 | 62 | 2.0 | 6.0 | 0.10 | 0.40 | 0.40 | 92 | 1017.2 |
| 20260505025053 | 52 | 70 | 3.0 | 7.0 | 0.09 | 0.38 | 0.38 | 92 | 1017.4 |
| 20260505024607 | 52 | 61 | 5.0 | 7.0 | 0.08 | 0.36 | 0.36 | 92 | 1017.4 |
| 20260505024050 | 52 | 55 | 2.0 | 5.0 | 0.07 | 0.35 | 0.35 | 92 | 1017.2 |
| 20260505023550 | 52 | 44 | 2.0 | 5.0 | 0.06 | 0.34 | 0.34 | 92 | 1017.1 |
| 20260505023050 | 52 | 107 | 1.0 | 4.0 | 0.05 | 0.33 | 0.33 | 92 | 1016.9 |
| 20260505022551 | 52 | 98 | 0.0 | 5.0 | 0.04 | 0.32 | 0.32 | 92 | 1016.8 |
| 20260505022051 | 52 | 108 | 1.0 | 5.0 | 0.05 | 0.32 | 0.32 | 92 | 1016.9 |
| 20260505021549 | 52 | 111 | 1.0 | 5.0 | 0.04 | 0.31 | 0.31 | 92 | 1016.7 |
| 20260505021048 | 52 | 105 | 1.0 | 5.0 | 0.04 | 0.31 | 0.31 | 92 | 1016.3 |
| 20260505020548 | 52 | 150 | 1.0 | 2.0 | 0.05 | 0.31 | 0.31 | 92 | 1015.8 |
| 20260505015548 | 52 | 151 | 0.0 | 6.0 | 0.04 | 0.30 | 0.30 | 92 | 1015.7 |
| 20260505015050 | 52 | 153 | 4.0 | 6.0 | 0.04 | 0.28 | 0.28 | 92 | 1015.6 |
| 20260505014548 | 52 | 109 | 1.0 | 5.0 | 0.04 | 0.28 | 0.28 | 92 | 1015.7 |
| 20260505014048 | 52 | 101 | 2.0 | 5.0 | 0.05 | 0.28 | 0.28 | 92 | 1016.1 |
| 20260505013548 | 52 | 92 | 1.0 | 3.0 | 0.06 | 0.28 | 0.28 | 92 | 1016.2 |
| 20260505013047 | 52 | 102 | 2.0 | 3.0 | 0.06 | 0.28 | 0.28 | 92 | 1016.4 |
| 20260505012550 | 52 | 124 | 1.0 | 4.0 | 0.07 | 0.28 | 0.28 | 92 | 1016.4 |
| 20260505012048 | 52 | 128 | 1.0 | 4.0 | 0.07 | 0.27 | 0.27 | 92 | 1016.3 |
| 20260505011547 | 52 | 142 | 1.0 | 2.0 | 0.07 | 0.27 | 0.27 | 92 | 1016.3 |
| 20260505011049 | 52 | 142 | 0.0 | 1.0 | 0.08 | 0.27 | 0.27 | 92 | 1016.2 |
| 20260505010545 | 52 | 142 | 0.0 | 4.0 | 0.07 | 0.26 | 0.26 | 92 | 1016.2 |
| 20260505010105 | 53 | 144 | 1.0 | 4.0 | 0.07 | 0.26 | 0.26 | 92 | 1016.5 |
| 20260505005545 | 53 | 155 | 0.0 | 6.0 | 0.08 | 0.26 | 0.26 | 92 | 1016.5 |
| 20260505005045 | 53 | 155 | 2.0 | 6.0 | 0.07 | 0.25 | 0.25 | 92 | 1016.3 |
| 20260505004559 | 53 | 163 | 3.0 | 6.0 | 0.07 | 0.24 | 0.24 | 92 | 1016.1 |
| 20260505004044 | 53 | 162 | 3.0 | 5.0 | 0.06 | 0.23 | 0.23 | 92 | 1016.3 |
| 20260505003544 | 53 | 123 | 1.0 | 5.0 | 0.06 | 0.22 | 0.22 | 92 | 1016.5 |
| 20260505003045 | 53 | 158 | 0.0 | 1.0 | 0.06 | 0.22 | 0.22 | 92 | 1016.7 |
| 20260505002544 | 53 | 158 | 0.0 | 2.0 | 0.06 | 0.21 | 0.21 | 92 | 1016.8 |
| 20260505002046 | 53 | 158 | 0.0 | 2.0 | 0.06 | 0.20 | 0.20 | 92 | 1016.8 |
| 20260505001544 | 53 | 158 | 0.0 | 4.0 | 0.06 | 0.20 | 0.20 | 92 | 1016.6 |
| 20260505001043 | 53 | 158 | 1.0 | 4.0 | 0.05 | 0.19 | 0.19 | 92 | 1016.5 |
| 20260505000542 | 53 | 158 | 1.0 | 4.0 | 0.05 | 0.19 | 0.19 | 92 | 1016.4 |
| 20260505000044 | 53 | 153 | 0.0 | 2.0 | 0.05 | 0.19 | 0.19 | 92 | 1016.8 |
| 20260504235544 | 53 | 153 | 0.0 | 5.0 | 0.05 | 0.18 | 0.18 | 92 | 1016.7 |
| 20260504235043 | 53 | 153 | 1.0 | 5.0 | 0.05 | 0.18 | 0.18 | 92 | 1016.6 |
| 20260504234541 | 52 | 157 | 0.0 | 4.0 | 0.05 | 0.17 | 0.17 | 92 | 1016.6 |
| 20260504234041 | 52 | 88 | 0.0 | 2.0 | 0.06 | 0.17 | 0.17 | 92 | 1016.5 |
| 20260504233542 | 52 | 116 | 0.0 | 2.0 | 0.06 | 0.16 | 0.16 | 91 | 1016.5 |
| 20260504233041 | 52 | 116 | 0.0 | 1.0 | 0.06 | 0.16 | 0.16 | 91 | 1016.5 |
| 20260504232540 | 52 | 116 | 0.0 | 1.0 | 0.06 | 0.15 | 0.15 | 91 | 1016.4 |
| 20260504232040 | 52 | 116 | 0.0 | 4.0 | 0.05 | 0.14 | 0.14 | 91 | 1016.3 |
| 20260504231558 | 52 | 134 | 1.0 | 4.0 | 0.06 | 0.14 | 0.14 | 91 | 1016.8 |
| 20260504231039 | 52 | 86 | 1.0 | 5.0 | 0.06 | 0.14 | 0.14 | 91 | 1017.0 |
| 20260504230539 | 52 | 103 | 1.0 | 5.0 | 0.07 | 0.14 | 0.14 | 91 | 1017.2 |
| 20260504230038 | 52 | 115 | 2.0 | 5.0 | 0.07 | 0.14 | 0.14 | 91 | 1016.9 |
| 20260504225538 | 52 | 155 | 1.0 | 5.0 | 0.07 | 0.13 | 0.13 | 91 | 1016.7 |
| 20260504225038 | 52 | 157 | 1.0 | 5.0 | 0.07 | 0.13 | 0.13 | 91 | 1016.7 |
| 20260504224541 | 52 | 162 | 1.0 | 5.0 | 0.06 | 0.12 | 0.12 | 91 | 1016.7 |
| 20260504224041 | 52 | 160 | 2.0 | 5.0 | 0.06 | 0.11 | 0.11 | 91 | 1016.8 |
| 20260504223538 | 53 | 154 | 2.0 | 5.0 | 0.06 | 0.10 | 0.10 | 91 | 1016.8 |
| 20260504223036 | 53 | 153 | 2.0 | 3.0 | 0.07 | 0.10 | 0.10 | 91 | 1016.8 |
| 20260504222538 | 53 | 140 | 0.0 | 4.0 | 0.06 | 0.09 | 0.09 | 91 | 1017.0 |
| 20260504222039 | 53 | 139 | 1.0 | 4.0 | 0.07 | 0.09 | 0.09 | 91 | 1017.1 |
| 20260504221547 | 53 | 159 | 0.0 | 4.0 | 0.06 | 0.08 | 0.08 | 91 | 1017.1 |
| 20260504221034 | 53 | 159 | 1.0 | 5.0 | 0.06 | 0.08 | 0.08 | 91 | 1017.1 |
| 20260504220535 | 53 | 159 | 3.0 | 5.0 | 0.05 | 0.07 | 0.07 | 91 | 1017.2 |
| 20260504220034 | 53 | 148 | 2.0 | 5.0 | 0.05 | 0.07 | 0.07 | 91 | 1017.2 |
| 20260504215536 | 53 | 188 | 1.0 | 8.0 | 0.05 | 0.06 | 0.06 | 90 | 1017.0 |
| 20260504215036 | 53 | 165 | 3.0 | 8.0 | 0.05 | 0.06 | 0.06 | 90 | 1017.0 |
| 20260504214536 | 53 | 153 | 4.0 | 9.0 | 0.04 | 0.05 | 0.05 | 90 | 1017.0 |
| 20260504214034 | 53 | 148 | 4.0 | 9.0 | 0.05 | 0.05 | 0.05 | 90 | 1017.1 |
| 20260504213533 | 53 | 154 | 3.0 | 7.0 | 0.04 | 0.04 | 0.04 | 90 | 1017.1 |
| 20260504213039 | 53 | 186 | 2.0 | 7.0 | 0.03 | 0.03 | 0.03 | 90 | 1017.1 |
| 20260504212533 | 53 | 161 | 5.0 | 8.0 | 0.02 | 0.02 | 0.02 | 89 | 1017.2 |
| 20260504212034 | 54 | 157 | 4.0 | 8.0 | 0.02 | 0.02 | 0.02 | 90 | 1017.3 |
| 20260504211535 | 54 | 161 | 4.0 | 9.0 | 0.02 | 0.02 | 0.02 | 90 | 1017.2 |
| 20260504211031 | 54 | 144 | 6.0 | 9.0 | 0.02 | 0.02 | 0.02 | 89 | 1017.2 |
| 20260504210531 | 54 | 148 | 7.0 | 9.0 | 0.02 | 0.02 | 0.02 | 89 | 1017.2 |
| 20260504210031 | 54 | 168 | 6.0 | 9.0 | 0.02 | 0.02 | 0.02 | 88 | 1017.1 |
| 20260504205532 | 54 | 160 | 5.0 | 8.0 | 0.01 | 0.01 | 0.01 | 88 | 1017.0 |
| 20260504205033 | 55 | 177 | 3.0 | 8.0 | 0.01 | 0.01 | 0.01 | 88 | 1017.0 |
| 20260504204534 | 55 | 179 | 4.0 | 8.0 | 0.01 | 0.01 | 0.01 | 88 | 1017.0 |
| 20260504204030 | 55 | 155 | 3.0 | 7.0 | 0.00 | 0.00 | 0.00 | 87 | 1016.9 |
| 20260504203530 | 55 | 144 | 1.0 | 6.0 | 0.00 | 0.00 | 0.00 | 87 | 1016.9 |
| 20260504203033 | 55 | 186 | 3.0 | 6.0 | 0.00 | 0.00 | 0.00 | 86 | 1017.0 |
| 20260504202530 | 55 | 167 | 1.0 | 5.0 | 0.00 | 0.00 | 0.00 | 86 | 1017.0 |
| 20260504202029 | 55 | 131 | 1.0 | 5.0 | 0.00 | 0.00 | 0.00 | 85 | 1017.0 |
| 20260504201529 | 55 | 174 | 1.0 | 5.0 | 0.00 | 0.00 | 0.00 | 85 | 1017.0 |
| 20260504201028 | 55 | 174 | 3.0 | 5.0 | 0.00 | 0.00 | 0.00 | 84 | 1017.0 |
| 20260504200528 | 55 | 175 | 1.0 | 6.0 | 0.00 | 0.00 | 0.00 | 84 | 1017.0 |
| 20260504200028 | 55 | 161 | 3.0 | 6.0 | 0.00 | 0.00 | 0.00 | 83 | 1017.0 |
| 20260504195529 | 55 | 167 | 1.0 | 9.0 | 0.00 | 0.00 | 0.00 | 83 | 1017.1 |
| 20260504195028 | 55 | 187 | 5.0 | 9.0 | 0.00 | 0.00 | 0.00 | 83 | 1016.9 |
| 20260504194527 | 56 | 214 | 6.0 | 9.0 | 0.00 | 0.00 | 0.00 | 81 | 1017.0 |
| 20260504194026 | 56 | 198 | 4.0 | 9.0 | 0.00 | 0.00 | 0.00 | 81 | 1017.0 |